Location: *
(38.4303°S, 157.0822°W)
Time: 15:19:33
(UTC+00:00)

Cosmos 1437 Rocket - Pass Details

Date: 21 May 2024
Orbit: 478 x 532 km, 81.2° (Epoch: 22 June)

Event Time Altitude Azimuth Distance (km) Brightness Sun altitude
Exits shadow 15:25:01 28° 4° (N) 1,003 4.2 -24.0°
Drops below altitude 10° 15:26:53 10° 5° (N) 1,744 5.5 -23.6°
Sets 15:29:01 0° 6° (N) 2,631 6.5 -23.2°
